Weather Roundup
Issued by NWS

Home | Current Version | Previous Version | Graphics & Text | Print | Product List | Glossary Off
Versions: 1 2 3 4 5 6 7 8 9 10 11 12 13 14 15 16 17 18 19 20 21 22 23 24 25 26 27 28 29 30 31 32 33 34 35 36 37 38 39 40 41 42 43 44 45 46 47 48 49 50

000
NZUS93 KARX 161510
HRRWXR

CURRENT HOURLY OBSERVATIONS ACROSS
MUCH OF THE UPPER MISSISSIPPI VALLEY
NATIONAL WEATHER SERVICE LA CROSSE WI
1000 AM CDT WED AUG 16 2017


...SOUTHEAST MINNESOTA...


CITY           SKY/WX    TMP DP  RH WIND       PRES   REMARKS
ROCHESTER      SUNNY     69  64  84 SE13      29.92F
ROCHESTER/MAYO FAIR      69  62  78 SE13G21   29.92F
WINONA         PTSUNNY   70  61  73 SE9       29.94F
AUSTIN         CLOUDY    70  64  83 SE12      29.90F
ALBERT LEA     CLOUDY    72  70  94 SE10      29.89F FOG
DODGE CENTER   MOSUNNY   70  63  78 SE12G18   29.92F
PRESTON        PTSUNNY   69  61  75 SE8       29.94F
OWATONNA       PTSUNNY   70  66  88 E8        29.90F
FARIBAULT      CLOUDY    66  64  94 E7        29.90F
$$

...ELSEWHERE IN MINNESOTA...


CITY           SKY/WX    TMP DP  RH WIND       PRES   REMARKS
MINNEAPOLIS    CLOUDY    67  63  87 SE13      29.90F
INTNL FALLS    CLOUDY    64  54  69 SE8       29.96F
DULUTH         MOSUNNY   64  59  83 E13       29.99S
RED WING       CLOUDY    68  61  77 E9        29.92F
REDWOOD FALLS  CLOUDY    69  65  86 SE7       29.85F
MANKATO        CLOUDY    68  65  90 SE13      29.88F
WORTHINGTON    RAIN      67  66  97 E7        29.87S FOG
FAIRMONT       CLOUDY    66  66 100 SE6       29.87F FOG
$$

...SOUTHWEST WISCONSIN...


CITY           SKY/WX    TMP DP  RH WIND       PRES   REMARKS
LA CROSSE      SUNNY     75  60  59 SE9       29.94F
PRAIRIE DU CHI SUNNY     73  61  67 SE8       29.95S
BOSCOBEL       CLOUDY    74  60  61 VRB5      29.97F
LONE ROCK      SUNNY     72  63  73 E10       29.98F
PLATTEVILLE    SUNNY     72  67  86 SE10      29.98R
FORT MC COY    MOSUNNY   73  60  63 SE9       29.98S
CAMP DOUGLAS   MOSUNNY   72  59  64 E12       29.99S
MAUSTON-NEW LI SUNNY     72  61  68 SE6       29.99S
VIROQUA        PTSUNNY   71  61  71 E10       29.98F
WIS DELLS      PTSUNNY   71  58  64 E5        30.00S
$$

...ELSEWHERE IN WISCONSIN...


CITY           SKY/WX    TMP DP  RH WIND       PRES   REMARKS
MILWAUKEE      MOSUNNY   74  65  73 E7        30.02S
MADISON        CLOUDY    72  60  66 E9        30.00F
GREEN BAY      PTSUNNY   72  64  76 NE9       30.04F
EAU CLAIRE     CLOUDY    69  60  73 SE10      29.96S
BLACK RVR FLS  CLOUDY    70  60  70 E5        29.98S
MEDFORD        CLOUDY    67  59  75 SE12G17   30.03R
WAUSAU         CLOUDY    64  59  83 E13       30.03S
WIS RAPIDS     MOSUNNY   69  59  70 SE9       30.03S
MARSHFIELD     PTSUNNY   68  59  73 SE9       30.02R
RICE LAKE      DRIZZLE   67  63  86 SE12      29.99F
$$

...NORTHEAST IOWA...


CITY           SKY/WX    TMP DP  RH WIND       PRES   REMARKS
WATERLOO       CLOUDY    74  67  78 SE10      29.89F
DUBUQUE        SUNNY     71  66  84 SE10      29.96F
DECORAH        SUNNY     70  64  83 VRB6G14   29.94S
MASON CITY     CLOUDY    68  66  93 SE14      29.90F FOG
CHARLES CITY   CLOUDY    72  70  94 SE12      29.91S
OELWEIN        CLOUDY    72  70  94 SE12G17   29.92F
$$

...ELSEWHERE IN IOWA...


CITY           SKY/WX    TMP DP  RH WIND       PRES   REMARKS
DES MOINES     CLOUDY    76  71  85 SE8       29.84F
IOWA CITY      SUNNY     77  70  79 E9        29.92F
FORT DODGE     CLOUDY    73  68  83 E10       29.84F
MARSHALLTOWN   PTSUNNY   75  71  87 SE15      29.87S
CEDAR RAPIDS   MOSUNNY   75  71  87 E12       29.91F
$$

...NORTHERN ILLINOIS...


CITY           SKY/WX    TMP DP  RH WIND       PRES   REMARKS
CHICAGO-OHARE  SUNNY     79  65  62 E8        29.99F
CHICAGO-MIDWAY SUNNY     79  67  66 E8        29.99F
MOLINE         SUNNY     77  68  73 E9        29.93F
ROCKFORD       MOSUNNY   78  66  66 SE7       29.99F
PEORIA         MOSUNNY   80  73  79 SE8       29.96S
$$

NOTE: "FAIR" INDICATES FEW OR NO CLOUDS BELOW 12,000 FEET WITH NO
SIGNIFICANT WEATHER AND/OR OBSTRUCTIONS TO VISIBILITY. WIND
SPEEDS ARE IN MILES-PER-HOUR.




USA.gov is the U.S. government's official web portal to all federal, state and local government web resources and services.